Location: Astronomy Club of Akron Observatory
(40.9700°N, 81.5606°W)
Time: 16:38:56
(UTC-04:00)

ISS - Pass Details

Date: 15 July 2018
Orbit: 402 x 408 km, 51.6° (Epoch: 22 July)

Event Time Altitude Azimuth Distance (km) Brightness Sun altitude
Exits shadow 03:32:51 - 303° (WNW) 2,096 -0.2 -21.5°
Reaches altitude 10° 03:35:09 10° 328° (NNW) 1,471 -0.7 -21.3°
Maximum altitude 03:36:47 13° 358° (N) 1,303 -0.5 -21.2°
Drops below altitude 10° 03:38:25 10° 27° (NNE) 1,473 0.2 -21.0°
Sets 03:41:24 0° 57° (ENE) 2,335 1.2 -20.7°
